Wetbulb
58.01 52.84 54.28 53.53 47.22 47.75 43.86 43.32 50.27 52.74 53.76 58.33 60.31 58.76 57.14 58.77 55.63 51.86 66.70 68.75 69.85 69.65 71.34 71.19 70.59 71.79 71.96 71.79 71.59 71.60 71.00 70.19 69.70 69.52 69.18 68.55 68.14 68.41 67.81 67.15 67.76 66.90 66.24 65.83 65.34 64.92 64.51 63.99 63.53
53.86 53.71 52.99 50.44 44.95 41.68 43.79 46.56 50.52 54.20 57.54 60.00 59.47 58.95 55.69 53.15 63.30 63.98 65.27 69.32 69.76 70.09 71.15 71.28 70.61 71.46 71.69 71.54 71.41 71.27 70.40 69.91 69.40 69.13 68.39 68.07 67.83 67.37 66.81 66.57 67.32 66.65 65.41 64.92 64.55 64.03 63.39 62.81 63.02
54.63 52.07 49.89 47.06 43.74 41.61 43.38 52.42 54.75 56.42 58.50 56.17 55.36 58.65 57.62 55.27 63.80 64.30 68.27 69.44 70.02 70.24 71.00 71.22 70.59 70.75 71.36 71.21 70.68 70.73 70.61 70.10 69.60 68.97 68.00 67.78 66.96 66.40 66.29 66.09 66.72 65.71 64.59 64.64 64.52 63.75 62.44 62.33 63.00
52.97 50.87 47.98 44.95 41.18 43.60 47.12 54.52 55.77 54.57 56.29 57.02 56.52 53.53 59.88 64.75 64.39 66.42 69.24 69.74 69.50 70.02 70.82 70.20 69.62 70.42 71.05 71.11 70.92 70.61 70.08 69.54 69.03 68.62 67.97 66.96 66.33 65.63 65.49 65.49 65.68 64.49 64.62 64.55 64.29 63.77 63.23 63.50 64.14
50.44 47.75 43.90 42.44 42.60 46.86 48.86 55.87 56.13 53.45 53.61 55.23 56.50 53.48 57.22 64.63 67.52 68.56 68.75 68.97 68.58 69.06 70.64 70.86 68.75 69.78 70.74 70.65 70.13 70.13 69.60 68.89 68.55 68.49 68.06 67.13 65.87 65.32 64.82 64.86 64.49 64.15 64.14 64.19 63.99 63.86 63.89 63.85 64.17
49.07 46.46 42.09 43.72 45.93 48.65 53.95 56.65 55.58 55.04 55.24 55.42 55.34 55.36 57.63 66.35 66.91 67.54 68.73 68.78 69.10 68.20 69.62 70.12 69.32 69.51 69.67 69.88 69.90 69.26 68.39 68.16 68.13 68.14 67.65 66.89 66.21 65.77 64.75 64.31 64.41 64.01 63.98 64.12 64.04 63.88 64.06 64.19 63.78
47.15 44.61 41.65 46.42 46.39 48.27 53.06 57.27 54.35 54.47 54.47 54.74 57.89 54.98 60.02 64.21 65.37 66.65 66.74 67.56 67.83 67.87 68.27 69.39 69.50 69.68 68.46 68.28 67.87 67.13 67.12 67.12 67.33 67.21 66.94 66.33 65.64 65.42 65.42 65.28 64.96 64.58 64.73 64.80 64.61 64.28 64.30 63.90 63.03
48.32 45.77 42.52 47.18 47.02 47.20 52.35 55.05 56.14 54.89 53.43 57.37 60.07 55.62 56.91 62.03 66.03 66.01 66.34 66.66 66.36 66.67 68.15 68.47 68.82 69.07 69.12 68.51 66.46 66.28 66.10 66.03 66.15 66.08 65.48 64.81 64.51 64.62 65.03 63.83 64.81 65.12 64.99 64.83 64.43 64.30 63.82 62.26 61.23
47.79 44.16 40.85 43.22 48.28 48.82 54.59 53.18 55.94 56.66 54.73 55.30 54.07 60.00 62.00 63.95 64.89 63.22 62.62 63.16 64.55 65.39 66.13 66.34 66.71 67.18 66.90 66.65 66.35 65.74 65.87 65.53 65.34 65.33 64.45 63.64 64.98 64.99 64.67 63.57 64.22 64.36 62.83 62.95 62.56 62.07 60.56 59.78 60.04
46.85 43.91 43.18 45.50 51.44 51.05 52.79 54.01 53.81 54.12 53.23 52.35 55.16 60.10 62.97 62.75 62.88 61.95 61.45 62.01 62.97 63.42 63.66 64.08 64.83 64.75 64.73 64.23 65.95 66.09 65.63 65.54 65.62 65.39 65.51 65.31 65.18 65.13 64.91 63.54 62.32 61.21 60.22 59.94 59.77 59.01 59.18 59.67 59.04
46.11 44.50 45.52 45.77 52.43 53.16 53.07 51.39 55.23 53.57 52.04 53.80 54.73 58.74 61.39 61.15 61.24 61.65 61.93 61.62 61.32 62.07 62.45 63.04 63.83 63.86 63.51 63.58 64.48 64.45 65.11 65.16 65.34 65.20 65.23 65.42 65.04 65.39 65.32 63.16 61.16 61.26 59.64 59.63 59.33 58.76 57.62 57.21 56.92
44.45 45.18 45.04 44.75 47.79 49.95 51.04 52.72 53.68 55.20 53.67 56.57 58.56 60.62 60.69 60.48 60.53 60.53 59.65 59.29 59.08 59.88 61.39 62.43 62.80 62.61 62.62 63.52 63.72 63.92 64.09 64.77 65.03 65.54 65.30 65.40 63.74 61.63 60.31 59.69 59.47 58.80 58.05 57.57 56.96 56.22 56.25 56.02 55.38
44.72 44.13 44.15 44.63 46.62 49.52 49.68 51.79 53.54 51.84 53.73 57.59 58.94 59.64 59.45 59.91 59.10 59.17 58.81 58.72 59.16 59.13 60.70 61.89 62.51 62.36 62.22 62.38 63.17 63.41 63.59 64.32 64.41 64.86 62.97 62.33 60.92 60.06 59.13 57.26 56.24 55.83 55.94 55.71 55.16 55.03 54.58 54.21 53.90
45.43 43.92 43.92 44.57 45.10 45.46 47.22 46.06 51.07 50.21 54.56 56.36 57.20 57.15 57.70 57.68 57.30 56.47 55.66 56.56 57.79 59.60 60.60 61.81 62.22 62.85 62.87 62.07 62.23 63.10 63.39 63.73 63.96 61.94 61.63 61.39 60.50 58.36 56.01 55.02 54.13 53.66 53.84 53.88 53.18 52.70 52.69 52.16 52.03
44.42 43.13 44.24 44.59 45.42 44.67 46.26 43.73 44.32 52.03 54.21 54.83 55.46 55.09 55.32 55.42 56.11 55.84 56.62 57.22 58.96 60.09 61.13 61.69 61.71 61.38 60.31 60.31 59.50 58.12 58.37 60.11 58.90 58.88 57.80 57.08 56.07 55.12 54.27 53.45 52.51 52.18 52.34 52.50 52.31 51.99 51.97 51.29 51.22
43.48 43.51 40.72 44.00 44.99 44.62 45.47 40.70 43.60 52.41 52.35 52.77 53.38 53.53 54.28 54.98 56.04 56.83 57.55 58.62 60.06 61.16 62.36 62.24 61.14 59.31 58.52 57.59 56.71 55.78 55.09 55.43 55.41 55.59 54.39 54.24 53.53 53.70 53.15 52.08 51.46 52.06 52.19 51.84 51.33 50.65 50.05 50.14 50.15
42.27 38.88 40.40 42.07 45.20 44.94 44.56 41.25 45.75 52.41 52.02 50.61 51.91 52.89 53.44 54.49 54.61 55.26 58.42 59.11 60.21 62.19 61.63 60.92 60.75 59.12 58.56 55.11 54.19 52.79 52.84 52.94 52.35 52.42 52.37 52.56 51.92 51.79 52.13 51.09 50.95 51.26 50.31 49.82 49.00 48.74 48.98 48.13 47.70
39.26 39.62 40.43 41.07 43.84 44.18 43.00 42.90 45.30 45.16 52.18 50.12 50.77 52.04 52.75 52.54 51.93 54.32 57.59 59.22 60.88 61.44 61.14 59.94 59.17 57.28 55.10 54.44 53.36 51.87 50.69 50.36 51.67 52.01 51.44 51.60 51.88 51.99 51.44 50.45 49.72 49.22 48.29 47.80 47.96 47.59 47.76 47.93 45.95
41.55 40.82 40.38 41.80 43.77 44.47 42.40 42.99 44.46 45.65 49.20 49.32 50.14 50.98 51.26 51.32 51.98 54.73 56.59 58.92 59.50 59.84 59.39 59.24 56.04 55.62 55.96 54.07 51.32 50.77 50.80 50.52 50.64 51.10 51.02 51.17 51.17 50.81 50.62 49.29 48.75 48.46 47.02 46.90 47.31 46.55 45.52 44.98 45.82
42.25 41.24 40.76 42.72 43.03 44.04 42.38 42.63 45.02 46.29 46.58 48.67 49.96 50.19 50.71 51.31 53.31 53.98 55.35 57.76 59.74 58.33 56.52 57.75 59.12 56.40 56.44 54.67 54.25 53.88 51.99 50.91 50.24 49.89 49.87 50.44 50.51 49.96 49.34 48.74 48.01 47.79 46.98 46.42 46.31 45.47 43.44 44.21 45.11
42.55 41.88 41.25 41.40 42.59 43.28 42.38 41.37 42.73 45.44 46.98 47.59 48.45 49.80 51.21 53.41 52.72 53.02 55.00 56.88 57.99 57.75 58.56 58.21 57.00 56.52 55.76 54.66 53.02 51.52 50.80 49.82 49.23 49.00 49.40 49.49 49.55 49.07 48.99 48.59 48.68 48.24 47.94 46.45 46.62 45.71 43.00 41.20 43.50
41.06 44.31 42.76 41.48 40.80 38.64 41.26 37.27 40.78 43.20 44.26 46.01 47.62 49.94 51.44 51.74 52.44 52.60 52.76 52.70 52.96 53.04 54.30 55.40 54.79 54.34 53.87 53.52 53.02 52.46 52.67 51.35 50.49 49.89 49.80 49.60 49.01 48.77 48.22 47.93 47.91 47.90 47.88 46.10 45.88 45.99 44.35 43.19 40.01
42.76 44.98 43.26 41.43 40.61 40.56 40.30 38.88 39.76 42.94 42.64 44.91 47.36 48.93 49.88 51.06 51.82 51.13 50.84 51.03 51.90 52.27 53.19 53.83 53.67 52.91 53.18 53.39 53.38 52.95 51.18 50.06 49.35 49.49 48.47 48.63 48.43 47.89 47.31 47.55 47.53 47.29 46.83 46.14 45.57 45.31 44.33 44.06 41.64
45.47 44.46 42.93 41.75 40.49 35.74 38.76 38.23 38.70 41.04 43.57 45.66 47.84 48.46 49.12 49.99 50.77 50.88 51.44 51.74 51.68 52.22 52.54 52.96 53.58 52.29 52.75 52.66 52.21 51.71 50.72 49.54 49.85 49.72 49.12 48.63 48.06 47.81 47.62 46.83 46.94 46.98 46.27 45.73 45.34 45.07 44.18 43.45 42.49
44.90 42.18 35.69 34.65 35.17 33.77 38.52 36.88 40.57 42.51 44.95 48.24 47.64 48.53 49.20 50.38 50.66 50.78 50.51 50.57 51.11 51.74 52.49 52.84 53.14 51.43 51.45 51.40 51.30 51.08 50.78 50.34 49.48 49.21 48.47 47.43 47.26 47.09 47.52 46.45 46.06 45.64 45.75 45.28 45.03 44.46 43.94 43.44 41.85
41.37 42.09 36.70 29.22 30.93 34.41 37.83 35.47 40.95 44.79 46.16 49.76 49.68 50.03 49.73 50.02 50.51 50.52 50.92 51.61 51.83 51.12 51.14 52.14 51.73 50.65 50.26 50.20 50.44 50.64 49.99 49.42 48.12 47.01 46.80 46.47 46.18 46.14 46.11 45.44 44.86 44.24 44.46 44.95 44.83 43.73 43.57 43.68 42.61
41.03 38.10 41.23 34.52 31.55 32.45 36.13 39.40 43.51 43.93 44.64 46.86 48.19 48.32 48.85 49.73 49.84 50.51 51.09 51.06 50.86 50.43 50.26 50.90 50.25 49.34 48.46 49.68 49.48 47.98 47.61 47.14 46.91 46.55 46.09 45.54 45.73 44.93 45.32 45.25 44.59 44.23 44.13 44.13 43.79 42.68 41.95 42.17 41.94
43.50 43.16 37.16 36.08 28.85 27.37 32.57 34.18 37.94 41.09 42.53 45.38 46.83 47.67 48.80 48.83 49.01 49.60 49.44 48.68 48.91 48.90 48.51 49.20 49.04 47.62 48.31 47.99 47.14 46.17 45.72 45.05 44.73 44.79 44.28 44.23 44.63 44.63 44.52 44.59 44.51 44.24 43.22 42.63 41.05 39.74 39.92 39.46 40.10
41.22 38.93 36.97 37.31 33.81 29.49 27.55 33.79 41.98 43.25 44.74 44.98 47.40 48.65 47.77 47.67 47.70 47.68 47.46 48.02 47.23 46.34 46.59 47.16 45.82 46.68 45.86 44.88 44.87 44.69 43.84 43.73 43.54 43.14 43.46 43.42 43.62 43.40 42.76 42.79 42.79 42.11 40.22 40.57 40.97 40.30 38.57 36.91 37.04
42.59 40.12 38.86 33.84 30.83 31.23 31.39 34.35 41.18 43.50 45.76 46.43 47.19 45.94 46.50 46.62 46.42 46.29 46.20 45.93 45.30 45.16 44.36 43.42 44.72 43.11 43.71 44.66 43.61 42.88 42.96 42.76 42.57 42.16 42.00 42.16 41.03 41.47 41.23 41.71 41.05 40.38 39.73 39.38 38.01 36.92 37.27 36.25 34.85
MSLP
1013.95 1014.11 1013.78 1013.95 1014.04 1013.02 1012.63 1012.93 1012.73 1013.68 1014.22 1014.71 1014.68 1014.88 1015.70 1016.24 1016.60 1017.55 1017.70 1017.78 1017.99 1018.41 1018.95 1019.27 1019.65 1019.87 1020.18 1020.54 1020.66 1020.78 1020.87 1021.15 1021.29 1021.41 1021.61 1021.75 1021.90 1022.07 1022.20 1022.35 1022.34 1022.38 1022.31 1022.50 1022.39 1022.33 1022.45 1022.45 1022.35
1013.83 1013.85 1013.67 1013.71 1013.23 1012.80 1012.52 1012.46 1012.92 1013.82 1014.44 1014.99 1015.03 1015.44 1015.71 1016.82 1017.08 1017.55 1017.85 1018.03 1018.18 1018.60 1018.95 1019.31 1019.73 1020.04 1020.43 1020.76 1020.87 1020.96 1021.07 1021.11 1021.37 1021.64 1021.75 1021.98 1022.24 1022.44 1022.42 1022.54 1022.57 1022.59 1022.48 1022.50 1022.45 1022.50 1022.68 1022.88 1022.72
1013.68 1013.53 1013.57 1013.44 1012.89 1012.48 1012.52 1013.03 1013.57 1014.46 1014.82 1015.13 1015.30 1015.51 1016.05 1017.01 1017.63 1017.71 1018.03 1018.29 1018.54 1018.99 1019.23 1019.49 1019.87 1020.31 1020.60 1020.81 1020.98 1021.13 1021.14 1021.42 1021.52 1021.81 1021.91 1022.20 1022.44 1022.55 1022.56 1022.82 1022.79 1022.87 1022.91 1022.81 1022.58 1022.47 1022.83 1022.94 1022.71
1013.50 1013.91 1014.01 1013.27 1012.92 1012.96 1012.81 1013.35 1013.49 1014.94 1015.41 1015.45 1015.19 1016.18 1016.40 1017.07 1017.00 1017.48 1018.19 1018.49 1018.56 1019.13 1019.35 1019.83 1020.14 1020.46 1020.72 1020.93 1021.08 1021.24 1021.31 1021.50 1021.72 1021.95 1022.19 1022.42 1022.65 1022.74 1022.96 1023.04 1023.12 1023.17 1022.89 1022.99 1022.88 1023.02 1023.20 1023.03 1022.95
1013.88 1013.90 1013.58 1013.28 1013.08 1013.04 1013.17 1013.46 1013.60 1014.35 1015.70 1016.02 1015.77 1016.17 1016.63 1017.37 1017.33 1017.77 1018.26 1018.52 1018.99 1019.30 1019.62 1019.95 1020.43 1020.75 1021.05 1021.12 1021.39 1021.48 1021.68 1021.85 1022.08 1022.35 1022.51 1022.81 1022.76 1022.91 1023.15 1023.18 1023.39 1023.34 1023.30 1023.27 1023.11 1023.12 1023.06 1023.13 1023.03
1013.68 1014.07 1013.54 1013.25 1013.29 1013.06 1013.33 1013.61 1013.96 1013.99 1014.90 1015.21 1015.53 1016.27 1017.03 1017.61 1017.74 1017.93 1018.41 1018.77 1019.16 1019.64 1019.87 1020.24 1020.62 1020.91 1021.20 1021.41 1021.69 1021.76 1021.82 1022.02 1022.23 1022.44 1022.61 1022.79 1022.86 1023.00 1023.16 1023.39 1023.44 1023.33 1023.20 1023.39 1023.50 1023.41 1023.30 1023.30 1023.19
1013.52 1013.62 1013.40 1013.27 1013.41 1013.14 1013.73 1013.99 1014.03 1014.20 1014.60 1015.07 1015.30 1016.54 1017.39 1017.80 1018.17 1018.44 1018.91 1018.96 1019.45 1019.74 1020.22 1020.23 1020.53 1021.02 1021.55 1021.94 1021.98 1022.04 1022.22 1022.33 1022.59 1022.80 1022.99 1022.98 1023.11 1023.41 1023.71 1023.63 1023.69 1023.72 1023.45 1023.49 1023.32 1023.48 1023.27 1023.37 1023.42
1013.39 1013.33 1013.23 1012.93 1013.45 1013.98 1014.06 1014.23 1014.03 1013.90 1014.66 1015.38 1015.63 1016.29 1017.26 1017.87 1018.32 1018.94 1019.20 1019.55 1019.89 1020.14 1020.27 1020.54 1020.91 1021.18 1021.67 1021.83 1022.13 1022.20 1022.42 1022.69 1022.77 1023.08 1023.07 1023.16 1023.27 1023.42 1023.79 1023.71 1023.87 1024.01 1023.75 1023.52 1023.47 1023.62 1023.52 1023.41 1023.49
1013.37 1013.29 1012.85 1012.57 1012.80 1014.00 1013.78 1014.02 1013.92 1014.04 1014.20 1015.35 1015.99 1016.19 1016.51 1017.84 1018.67 1019.18 1019.76 1019.94 1020.14 1020.36 1020.56 1020.99 1021.33 1021.62 1021.79 1021.99 1022.32 1022.50 1022.54 1022.66 1022.71 1022.98 1023.04 1023.17 1023.20 1023.30 1023.54 1023.67 1023.76 1023.89 1024.05 1023.85 1023.81 1024.01 1023.89 1023.75 1023.60
1013.13 1012.91 1012.24 1011.95 1012.14 1012.21 1012.40 1012.83 1013.43 1014.19 1014.70 1015.45 1016.29 1016.94 1017.40 1018.23 1018.77 1019.27 1019.54 1019.84 1020.03 1020.25 1020.78 1021.08 1021.37 1021.83 1021.97 1022.19 1022.36 1022.53 1022.75 1022.79 1022.90 1023.02 1022.96 1023.13 1023.33 1023.47 1023.54 1023.78 1023.89 1024.06 1024.04 1024.34 1024.36 1024.46 1024.13 1023.84 1023.66
1012.79 1012.25 1011.91 1011.79 1011.58 1011.71 1012.02 1013.46 1013.39 1013.91 1014.48 1014.67 1015.63 1016.76 1017.46 1018.35 1018.84 1019.37 1019.48 1019.40 1019.45 1020.23 1020.86 1021.11 1021.24 1021.88 1022.13 1022.43 1022.53 1022.47 1022.86 1023.32 1023.18 1023.21 1023.29 1023.47 1023.45 1023.66 1023.80 1023.98 1024.07 1024.16 1024.33 1024.22 1024.43 1024.52 1024.42 1024.36 1024.18
1012.29 1011.44 1011.32 1011.55 1011.43 1011.92 1012.47 1013.19 1013.10 1013.50 1014.17 1014.29 1015.27 1016.13 1017.16 1018.20 1018.78 1019.00 1019.01 1019.35 1019.81 1020.18 1020.61 1021.08 1021.47 1022.04 1022.63 1022.57 1022.60 1022.96 1023.07 1023.18 1023.20 1023.36 1023.60 1023.70 1023.71 1024.14 1024.20 1024.47 1024.47 1024.53 1024.59 1024.59 1024.77 1024.80 1024.91 1024.69 1024.57
1011.76 1011.40 1011.50 1011.45 1011.32 1012.06 1012.55 1012.87 1013.32 1013.97 1014.54 1014.77 1015.79 1016.56 1017.24 1018.02 1018.66 1018.95 1019.25 1019.61 1019.89 1020.07 1020.80 1021.36 1021.52 1022.26 1022.70 1022.82 1023.07 1023.36 1023.38 1023.26 1023.58 1023.60 1023.82 1023.79 1024.03 1024.30 1024.45 1024.80 1024.91 1025.03 1024.88 1024.84 1024.92 1025.00 1024.97 1024.79 1024.56
1011.38 1011.45 1011.43 1011.69 1011.87 1012.34 1012.60 1013.43 1013.54 1014.74 1014.92 1015.56 1016.27 1016.76 1017.21 1017.73 1018.65 1019.25 1019.40 1019.61 1019.81 1020.21 1020.92 1021.62 1022.01 1022.26 1022.49 1023.14 1023.33 1023.45 1023.65 1023.57 1023.60 1023.78 1024.04 1024.05 1024.30 1024.75 1024.83 1024.95 1025.13 1025.19 1025.14 1025.17 1025.22 1025.25 1025.10 1024.92 1024.76
1011.36 1011.54 1011.71 1012.01 1012.10 1012.71 1012.70 1014.04 1014.56 1014.94 1015.32 1015.89 1016.76 1017.33 1017.86 1018.43 1018.97 1019.04 1019.34 1019.55 1019.87 1020.38 1021.19 1021.62 1022.11 1022.52 1023.05 1023.67 1024.10 1024.45 1024.65 1024.60 1024.59 1024.56 1024.63 1024.49 1024.67 1025.07 1025.06 1025.07 1025.31 1025.52 1025.66 1025.62 1025.43 1025.26 1025.11 1024.91 1024.80
1011.44 1011.84 1012.07 1012.38 1012.43 1013.17 1013.38 1014.70 1015.72 1015.99 1015.90 1016.34 1017.02 1017.68 1017.95 1018.41 1018.81 1019.19 1019.47 1019.61 1019.89 1020.49 1021.14 1021.87 1022.54 1023.32 1023.70 1024.06 1024.67 1025.22 1025.15 1025.18 1025.25 1024.89 1024.86 1025.00 1025.10 1025.12 1025.15 1025.40 1025.76 1025.88 1025.77 1025.60 1025.49 1025.44 1025.12 1025.01 1024.84
1012.08 1012.25 1012.39 1012.70 1012.66 1013.03 1013.82 1015.51 1016.30 1016.45 1016.53 1017.02 1017.46 1017.92 1018.36 1018.81 1019.17 1019.53 1019.73 1019.76 1019.93 1020.72 1021.40 1022.24 1022.95 1023.39 1023.60 1024.32 1024.03 1025.26 1025.42 1025.67 1025.24 1024.92 1025.04 1025.30 1025.48 1025.68 1025.71 1026.06 1026.14 1025.98 1025.93 1026.02 1025.88 1025.60 1025.57 1025.21 1024.98
1012.26 1012.44 1012.64 1012.76 1013.40 1013.87 1014.84 1016.30 1016.98 1017.16 1017.07 1017.62 1018.07 1018.54 1018.80 1019.14 1019.68 1020.15 1020.22 1020.43 1020.52 1021.24 1021.74 1022.43 1022.85 1023.35 1023.18 1023.95 1024.75 1025.28 1025.74 1025.59 1025.44 1025.34 1025.58 1025.69 1025.79 1025.98 1025.95 1026.13 1026.18 1026.04 1026.03 1026.15 1026.14 1025.93 1025.66 1025.59 1025.41
1012.18 1012.43 1012.81 1013.52 1014.07 1014.74 1016.03 1016.88 1017.57 1017.73 1017.79 1018.19 1018.34 1018.74 1019.17 1019.80 1020.32 1020.69 1020.81 1020.90 1021.02 1021.66 1022.25 1022.44 1022.38 1023.08 1023.51 1024.88 1025.11 1025.13 1025.45 1025.59 1025.68 1025.74 1025.92 1025.93 1025.97 1026.02 1026.02 1026.06 1026.11 1026.17 1026.24 1026.46 1026.32 1025.98 1025.70 1025.23 1025.29
1012.61 1012.99 1013.64 1014.13 1014.41 1014.81 1016.28 1017.06 1017.83 1018.13 1018.50 1018.61 1018.82 1019.25 1019.54 1020.04 1020.54 1020.89 1020.94 1021.00 1021.06 1021.48 1021.82 1022.09 1022.47 1022.90 1023.81 1024.40 1024.22 1024.42 1025.04 1025.64 1025.95 1026.16 1026.39 1026.25 1026.07 1026.02 1025.94 1026.00 1026.13 1026.30 1026.16 1026.24 1026.18 1026.02 1025.66 1025.55 1025.62
1013.16 1013.48 1013.81 1014.13 1014.73 1015.23 1015.89 1016.72 1017.70 1018.49 1018.92 1019.23 1019.47 1019.70 1019.85 1019.89 1020.32 1020.85 1021.06 1021.15 1021.30 1021.60 1022.07 1022.39 1022.53 1023.11 1023.76 1023.97 1024.38 1024.91 1025.72 1026.14 1026.08 1026.24 1026.13 1026.22 1026.04 1025.90 1025.97 1026.12 1026.16 1026.22 1026.19 1026.07 1026.04 1025.96 1025.86 1025.51 1025.59
1013.53 1013.84 1013.95 1014.28 1014.66 1015.34 1015.94 1016.28 1017.06 1018.04 1018.79 1019.25 1019.40 1019.57 1019.83 1020.14 1020.61 1020.99 1021.19 1021.34 1021.35 1021.80 1022.16 1022.38 1022.79 1023.24 1023.69 1024.14 1024.31 1024.50 1024.81 1025.15 1025.56 1025.77 1025.79 1025.91 1026.06 1026.10 1026.18 1026.24 1026.22 1026.09 1025.98 1025.85 1025.78 1025.79 1025.84 1025.83 1025.54
1014.13 1014.19 1014.46 1014.89 1015.17 1015.62 1016.03 1016.53 1016.84 1017.78 1018.17 1018.74 1019.26 1019.68 1020.05 1020.48 1020.69 1020.92 1021.15 1021.47 1021.77 1021.96 1022.13 1022.35 1022.67 1023.24 1023.59 1023.84 1024.10 1024.35 1024.76 1025.24 1025.54 1025.72 1025.80 1025.93 1026.13 1026.27 1026.23 1026.15 1026.04 1025.87 1025.68 1025.64 1025.81 1026.06 1026.17 1026.08 1025.92
1014.21 1014.65 1015.20 1015.66 1015.81 1016.19 1016.41 1016.71 1016.58 1017.12 1017.28 1018.28 1019.07 1019.55 1019.98 1020.44 1020.71 1021.01 1021.23 1021.37 1021.71 1022.28 1022.31 1022.36 1022.84 1023.43 1023.76 1024.07 1024.35 1024.51 1024.76 1025.20 1025.28 1025.46 1025.66 1025.79 1025.87 1025.83 1025.89 1025.90 1025.82 1025.69 1025.67 1025.82 1025.97 1026.13 1026.18 1026.10 1025.91
1014.36 1014.98 1015.88 1016.39 1016.58 1016.65 1016.85 1017.01 1015.92 1016.53 1016.92 1017.26 1018.18 1018.96 1019.72 1020.20 1020.44 1020.66 1021.04 1021.57 1021.82 1022.06 1022.46 1022.55 1022.72 1023.28 1023.82 1024.18 1024.40 1024.64 1025.01 1025.23 1025.34 1025.48 1025.72 1025.84 1025.70 1025.61 1025.50 1025.87 1025.80 1025.74 1025.83 1025.79 1025.72 1025.68 1025.66 1025.61 1025.51
1014.99 1015.40 1016.13 1016.79 1017.45 1017.24 1017.20 1016.63 1015.88 1016.44 1016.68 1017.02 1017.80 1018.55 1019.34 1019.90 1020.28 1020.69 1021.24 1021.68 1022.02 1022.41 1022.81 1022.84 1023.14 1023.64 1024.24 1024.46 1024.71 1025.01 1025.28 1025.58 1025.86 1026.12 1026.14 1026.07 1025.98 1025.84 1025.76 1025.64 1025.50 1025.34 1025.17 1025.07 1025.21 1025.06 1025.18 1025.28 1025.20
1015.36 1015.98 1016.60 1017.39 1018.63 1018.08 1017.15 1016.61 1016.13 1016.48 1016.68 1017.14 1017.68 1018.50 1018.99 1019.57 1020.27 1020.78 1021.38 1021.87 1022.24 1022.65 1023.02 1023.33 1023.55 1024.10 1024.52 1024.79 1025.04 1025.40 1025.74 1025.99 1026.09 1026.11 1026.13 1026.01 1025.82 1025.51 1025.24 1025.16 1024.94 1024.70 1024.64 1024.55 1024.72 1024.74 1024.82 1024.82 1024.86
1014.97 1016.11 1016.94 1017.51 1018.35 1018.22 1017.41 1016.91 1016.13 1016.33 1016.60 1017.05 1017.59 1018.04 1018.75 1019.63 1020.37 1021.00 1021.70 1022.24 1022.50 1023.02 1023.41 1023.66 1024.03 1024.38 1024.68 1024.92 1025.22 1025.58 1025.89 1026.10 1026.19 1026.11 1025.92 1025.80 1025.58 1025.35 1025.05 1024.64 1024.38 1024.27 1024.37 1024.45 1024.65 1024.83 1024.82 1024.81 1024.71
1015.72 1016.24 1017.30 1017.97 1018.59 1018.45 1018.10 1016.57 1015.98 1015.89 1016.17 1016.52 1016.99 1017.71 1018.70 1019.60 1020.45 1021.19 1021.84 1022.27 1022.83 1023.37 1023.75 1024.08 1024.35 1024.64 1024.80 1025.06 1025.40 1025.69 1025.95 1026.03 1026.02 1026.00 1025.92 1025.78 1025.58 1025.23 1025.06 1024.80 1024.49 1024.33 1024.54 1024.71 1024.60 1024.48 1024.57 1024.65 1024.64
1015.56 1016.14 1016.90 1017.93 1018.93 1019.10 1018.67 1016.85 1016.20 1016.23 1016.40 1016.84 1017.32 1018.21 1019.03 1019.83 1020.59 1021.34 1021.90 1022.44 1022.96 1023.44 1024.02 1024.26 1024.77 1024.79 1024.96 1025.26 1025.50 1025.69 1025.81 1025.89 1025.95 1026.01 1025.99 1025.92 1025.72 1025.48 1025.07 1024.65 1024.39 1024.39 1024.58 1024.70 1024.52 1024.42 1024.36 1024.45 1024.59
Wind_Speed
1 3 3 1 3 1 2 2 1 7 4 2 6 10 11 7 3 1 4 6 14 13 11 12 13 15 15 15 15 15 16 16 16 15 14 14 13 13 13 13 12 13 14 14 15 15 14 14 14
3 3 2 0 2 2 4 3 3 6 11 10 10 9 7 5 2 5 6 9 14 13 12 12 12 13 14 13 14 14 15 15 15 14 14 13 13 12 13 13 11 12 13 13 13 14 14 12 12
1 4 1 2 2 4 3 7 16 14 12 2 4 5 7 1 3 5 4 13 15 12 12 12 12 12 13 13 12 13 13 13 13 12 13 13 12 12 13 11 10 11 12 13 13 13 12 11 11
1 1 2 1 1 1 2 13 18 4 4 4 7 3 5 6 11 8 13 15 15 13 12 12 11 11 12 12 12 12 12 12 11 11 12 12 11 12 11 10 9 10 12 13 14 14 12 11 11
3 1 2 2 2 2 2 12 10 10 8 7 6 7 5 2 11 16 16 13 14 12 11 12 10 11 11 12 12 11 11 10 10 10 10 10 11 11 10 9 9 10 12 13 13 12 12 11 11
2 1 2 4 4 4 7 9 12 16 10 3 2 2 4 8 13 14 15 14 12 12 10 11 10 10 10 10 10 9 10 9 9 9 9 10 10 10 10 8 8 9 10 11 11 11 11 11 11
2 2 3 6 4 10 6 9 7 8 11 9 7 4 4 7 10 11 9 11 10 10 9 10 10 9 7 8 8 9 9 9 8 8 8 9 9 9 8 8 9 9 10 10 10 10 10 11 11
3 3 4 4 8 9 5 4 12 9 3 3 5 5 6 9 13 10 9 8 7 8 8 8 8 8 8 8 7 8 8 8 8 8 9 8 8 8 7 7 10 11 11 11 11 10 10 11 12
2 1 3 7 10 12 10 7 8 4 6 2 2 1 10 16 13 10 8 5 6 6 6 5 6 7 6 7 7 7 8 8 8 7 8 6 4 5 5 7 7 8 10 11 11 12 12 10 10
2 3 7 7 9 9 8 11 11 4 8 3 5 10 17 15 15 13 12 11 10 10 8 7 7 7 6 5 6 5 5 4 4 4 5 3 3 3 3 5 8 11 12 13 13 12 10 8 7
5 4 7 8 10 11 10 8 6 11 10 5 9 16 15 15 13 13 12 13 14 10 8 9 8 6 5 4 4 3 2 2 2 2 2 2 2 2 2 4 4 5 9 6 7 7 6 8 6
4 4 1 3 9 10 13 6 5 6 1 4 17 20 17 17 15 15 15 14 12 12 11 9 6 5 4 1 2 2 2 1 0 2 3 1 2 4 5 4 5 6 5 6 6 4 6 7 7
3 1 2 5 7 8 8 4 6 6 2 14 18 16 18 16 15 13 10 10 10 10 9 7 6 4 3 3 2 0 1 0 2 3 4 4 4 5 6 6 6 5 5 6 6 5 5 6 7
2 3 4 4 7 5 7 4 4 1 10 15 18 17 17 18 16 11 11 11 10 9 8 6 7 5 5 3 3 1 2 1 3 4 5 7 6 6 6 6 6 6 6 5 5 5 4 5 6
4 6 5 5 2 4 8 4 2 4 13 16 16 13 12 11 10 12 10 9 10 7 8 11 10 11 10 10 9 8 6 6 5 6 7 9 8 8 7 6 6 5 5 5 4 5 4 5 5
4 5 4 2 3 2 3 3 7 4 14 15 14 12 12 11 8 3 2 7 8 9 12 13 11 12 12 12 9 5 6 5 4 6 7 9 8 8 7 6 5 4 5 5 5 5 6 5 6
6 4 3 4 4 4 3 3 8 1 7 8 9 10 9 7 4 4 4 1 7 12 16 15 12 12 11 10 9 4 4 3 5 6 7 8 8 8 8 6 5 5 5 5 5 5 5 5 7
4 4 2 3 3 9 7 4 7 5 7 7 7 7 7 5 2 5 5 7 11 12 13 14 11 11 10 8 6 4 4 4 4 5 6 7 7 8 6 6 6 5 5 5 5 6 5 4 6
4 3 3 2 2 7 4 4 6 3 5 8 7 7 6 5 4 5 8 10 14 14 13 12 12 11 7 6 6 5 4 4 4 5 7 7 7 6 6 4 5 5 5 5 5 5 7 6 8
4 7 3 3 3 4 4 6 7 5 2 2 7 8 7 7 8 8 9 10 11 14 12 9 9 12 10 9 4 3 4 3 4 5 5 5 5 5 5 4 4 4 3 4 4 5 4 4 5
4 5 2 4 4 6 3 3 2 5 5 4 4 6 8 12 14 12 11 9 9 10 10 10 11 12 9 5 5 6 6 4 4 4 3 3 3 3 3 2 1 1 1 2 0 1 4 4 3
4 1 4 4 2 2 3 3 1 1 3 4 7 9 12 13 12 12 12 11 10 9 9 10 10 9 7 7 5 5 2 3 2 2 2 0 1 1 2 3 3 2 2 3 3 2 3 4 5
3 3 4 3 4 3 2 2 0 0 4 8 10 11 10 9 8 11 12 12 10 10 10 9 10 8 7 5 4 3 4 4 4 3 1 3 3 4 5 5 5 5 4 4 4 4 4 3 4
8 5 6 4 2 1 1 3 3 6 5 11 11 10 9 8 8 9 9 10 9 5 7 8 9 7 6 5 5 6 7 5 3 1 3 3 3 4 7 7 7 7 6 5 4 5 5 5 5
4 4 2 2 1 3 1 3 5 4 6 15 17 13 11 10 11 10 8 6 7 8 6 6 7 7 6 6 6 6 5 4 3 3 4 6 4 4 6 7 8 6 5 5 4 4 7 7 6
2 3 4 5 3 1 1 5 2 2 4 13 14 13 12 11 10 9 8 7 6 5 4 6 6 6 5 5 5 3 4 3 4 5 5 6 6 7 9 7 6 7 7 6 6 5 6 8 6
3 2 2 7 1 1 2 3 5 1 5 11 15 12 14 12 10 10 8 6 6 5 4 4 5 5 4 4 3 5 4 4 4 6 5 4 6 5 7 8 8 9 8 7 5 5 8 7 8
1 7 3 2 3 3 2 5 5 4 8 12 15 16 14 11 10 8 7 7 6 5 3 4 4 4 4 4 5 4 3 3 3 3 5 6 7 8 10 11 10 10 7 5 3 4 5 9 7
3 2 6 5 1 3 1 4 4 8 11 16 17 15 13 11 9 9 8 7 6 5 4 5 4 4 4 4 3 3 3 2 3 4 5 7 9 11 12 12 11 8 4 4 7 6 6 6 7
1 3 4 4 4 2 0 6 1 5 8 9 11 8 8 9 10 9 8 7 6 5 6 6 5 5 5 4 5 4 3 3 5 6 8 9 10 11 11 10 7 4 4 6 6 3 3 6 6
Wind_Direction
268 169 112 81 204 49 145 279 106 104 64 72 76 89 91 48 32 11 135 133 133 132 139 143 133 133 134 135 125 121 121 120 115 111 107 100 97 93 91 89 80 79 75 70 66 62 58 49 43
209 146 94 69 143 174 205 317 64 103 135 126 94 94 56 74 29 96 131 144 132 135 139 143 135 133 134 131 128 125 121 115 110 106 105 103 101 100 95 90 83 81 77 73 68 62 57 52 47
229 50 206 137 133 204 137 121 118 126 155 56 99 58 136 119 84 112 129 132 133 134 143 141 131 135 135 131 129 123 117 117 119 119 114 115 114 107 100 95 88 83 78 72 68 66 60 52 44
89 64 95 139 181 154 76 146 123 92 57 354 81 56 77 351 146 146 134 146 136 143 149 140 134 129 133 134 130 128 125 127 125 122 121 119 112 102 97 90 84 82 77 72 68 63 56 47 39
52 99 89 90 95 338 186 143 119 103 107 274 339 153 101 21 131 136 139 146 144 149 149 148 132 132 138 140 140 131 127 120 118 118 116 116 106 100 96 88 80 75 66 60 56 53 50 45 41
93 52 143 107 46 34 68 111 86 113 120 251 356 102 79 124 139 140 149 149 147 150 148 145 140 138 143 144 133 131 127 126 125 126 126 120 106 100 95 86 76 71 69 63 56 48 41 36 34
167 139 154 121 83 82 89 98 93 101 162 219 141 124 102 144 139 139 141 137 150 147 149 152 153 147 135 132 141 138 132 132 130 129 121 111 101 93 83 68 56 50 51 50 49 39 38 30 29
125 97 161 112 90 58 92 125 149 156 194 129 132 182 159 162 135 123 127 133 135 146 157 155 154 154 165 158 151 149 147 143 136 134 121 111 105 89 71 62 45 34 30 30 31 29 30 35 28
106 136 170 158 165 151 169 149 213 141 121 79 38 139 126 141 134 127 124 122 143 156 161 147 162 171 165 158 162 164 156 155 149 139 123 120 109 98 81 64 48 46 37 39 40 40 38 25 35
156 202 208 183 158 129 184 197 151 164 161 164 102 88 123 141 151 150 157 166 177 175 168 180 179 177 165 168 166 162 154 160 155 149 137 127 111 96 94 71 59 57 53 48 45 40 37 30 29
178 216 195 188 176 184 189 165 146 142 193 187 168 149 137 143 152 161 174 186 184 175 184 186 176 169 171 165 168 146 151 159 138 136 101 111 109 74 72 70 54 55 52 50 46 41 39 35 25
213 267 222 122 176 151 172 171 97 138 232 229 153 149 145 158 172 176 187 189 188 186 186 179 162 138 156 125 148 128 164 163 136 69 54 32 63 70 67 66 63 58 53 60 49 42 31 28 23
191 201 112 154 155 119 132 136 132 149 76 126 139 150 156 163 181 196 202 196 194 186 183 176 147 129 106 67 44 203 230 53 27 46 81 94 90 90 90 80 73 65 61 54 46 33 23 12 2
132 99 107 101 115 129 123 98 92 150 134 130 150 163 170 173 184 193 213 206 200 193 174 140 116 103 82 60 13 316 343 49 110 81 75 89 101 103 100 93 82 70 56 51 41 25 2 354 343
156 92 91 41 95 88 105 58 340 148 150 153 171 162 165 176 188 212 219 216 203 189 135 110 93 89 85 65 44 33 29 44 57 76 77 89 99 101 97 85 71 57 50 40 22 7 356 346 342
74 60 105 346 137 111 170 124 14 145 157 167 165 162 173 178 192 214 295 221 188 146 121 108 102 92 88 85 71 59 40 63 96 100 95 96 100 98 86 77 65 55 45 28 19 7 354 2 354
30 136 125 133 21 102 51 119 353 172 162 154 156 159 166 163 111 34 4 332 161 137 130 121 117 104 90 79 90 82 99 116 115 113 113 107 93 83 83 80 71 54 48 35 11 7 358 357 348
187 140 118 145 85 50 87 80 347 333 164 139 136 152 150 133 42 24 62 91 118 127 123 122 117 119 112 111 126 123 131 116 115 103 99 97 87 90 88 76 65 46 38 29 12 1 7 4 347
144 117 109 46 65 89 79 82 14 11 129 154 154 161 141 110 57 69 95 114 118 117 128 136 129 118 136 147 147 145 156 132 98 89 85 90 92 86 83 81 67 47 39 29 20 3 2 359 358
118 112 90 107 25 99 179 80 57 46 57 193 169 165 152 124 116 110 110 121 138 143 144 155 146 140 164 166 167 123 135 99 99 96 91 96 104 103 95 86 69 49 38 44 38 21 353 342 10
60 108 136 121 104 77 152 137 71 74 83 102 132 147 144 141 131 121 121 122 124 136 154 157 144 155 172 165 127 112 118 128 140 143 135 96 89 82 84 103 89 58 26 14 354 334 1 345 353
91 21 106 105 117 154 332 254 309 57 111 148 152 154 145 136 128 133 133 137 134 133 137 138 142 158 157 162 165 125 143 162 123 135 116 106 333 315 258 254 258 250 235 247 273 284 334 325 326
123 91 83 94 95 144 58 253 353 218 216 179 172 169 161 144 142 146 149 149 147 151 148 142 143 144 145 142 145 134 111 103 123 139 198 265 265 261 267 266 272 265 255 258 264 264 256 268 290
150 91 58 63 75 210 129 229 225 204 214 180 187 191 172 159 154 158 164 160 156 148 131 129 132 112 114 121 122 117 110 128 142 197 265 278 283 277 263 261 260 263 263 249 255 266 271 281 278
76 68 18 8 13 240 72 199 271 234 209 180 186 192 181 182 176 174 167 162 149 135 136 128 127 106 97 108 105 117 145 171 223 268 304 305 292 282 304 296 283 279 271 257 252 263 269 270 270
91 163 161 199 202 245 199 234 195 272 207 187 185 185 182 188 188 182 177 169 153 127 131 114 121 120 116 114 125 140 43 7 348 333 318 307 307 307 308 302 278 255 236 224 233 267 278 272 273
161 120 121 106 37 261 256 263 248 95 181 179 181 181 193 193 185 180 173 169 153 140 139 161 120 116 151 160 102 61 33 349 319 316 312 299 295 298 306 299 280 255 242 230 269 273 284 303 293
141 136 127 40 156 245 279 276 253 217 193 185 188 194 195 185 181 174 160 148 127 121 115 103 136 154 150 98 60 47 3 325 312 317 341 344 335 325 316 307 297 282 265 270 272 279 291 283 292
144 118 64 101 82 173 287 256 222 244 194 195 199 197 186 180 173 161 144 127 125 122 123 130 112 138 91 90 115 109 103 57 34 13 358 349 331 327 319 313 307 296 283 306 274 282 283 296 301
166 147 140 130 184 75 80 272 217 275 231 214 204 175 165 162 148 140 137 141 152 144 137 126 156 103 78 100 116 105 83 40 26 12 352 337 324 319 315 310 299 265 305 284 301 282 313 313 290